User: anonymous   Login
Location: Fountain Hills
(33.6120°N, 111.7170°W)
Time: 22:06:53
(UTC-07:00)
Language:

Hamsat - Orbit

View from above orbital plane
View from above orbital plane
View from above satellite
View from above satellite

Ground track
Ground track

The orbit data is extracted from the following two-line orbital elements,

1 28650U 05017B   17053.48164448  .00000474  00000-0  56424-4 0  9999
2 28650  97.6382  31.8026 0024336 147.3252 212.9477 14.88566922639102
Epoch (UTC): 22 February 2017 11:33:34
Eccentricity: 0.0024336
inclination: 97.6382°
perigee height: 585 km
apogee height: 619 km
right ascension of ascending node: 31.8026°
argument of perigee: 147.3252°
revolutions per day: 14.88566922
mean anomaly at epoch: 212.9477°
orbit number at epoch: 63910

The dashed part of the orbit path shows where the satellite is in the earth's shadow,  

DLR